TimeMST,TemperatureF,Dew PointF,Humidity,Sea Level PressureIn,VisibilityMPH,Wind Direction,Wind SpeedMPH,Gust SpeedMPH,PrecipitationIn,Events,Conditions,WindDirDegrees,DateUTC
12:53 AM,21.9,17.1,82,30.10,10.0,SW,10.4,-,N/A,,Clear,220,2013-01-05 07:53:00
1:53 AM,21.0,16.0,81,30.10,10.0,SW,8.1,-,N/A,,Clear,230,2013-01-05 08:53:00
2:53 AM,19.9,14.0,78,30.11,10.0,West,3.5,-,N/A,,Clear,270,2013-01-05 09:53:00
3:53 AM,19.0,14.0,81,30.14,10.0,West,4.6,-,N/A,,Clear,280,2013-01-05 10:53:00
4:53 AM,18.0,12.0,78,30.16,10.0,West,8.1,-,N/A,,Clear,260,2013-01-05 11:53:00
5:53 AM,19.9,12.9,74,30.17,10.0,WNW,5.8,-,N/A,,Clear,290,2013-01-05 12:53:00
6:53 AM,19.9,12.0,71,30.22,10.0,WNW,10.4,-,N/A,,Clear,300,2013-01-05 13:53:00
7:53 AM,21.9,14.0,72,30.23,10.0,WSW,5.8,-,N/A,,Clear,250,2013-01-05 14:53:00
8:53 AM,28.9,17.1,61,30.24,10.0,West,6.9,-,N/A,,Clear,280,2013-01-05 15:53:00
9:53 AM,34.0,16.0,48,30.25,10.0,West,5.8,-,N/A,,Clear,270,2013-01-05 16:53:00
10:53 AM,37.9,18.0,45,30.26,10.0,WNW,5.8,-,N/A,,Clear,290,2013-01-05 17:53:00
11:53 AM,41.0,16.0,36,30.24,10.0,WNW,3.5,-,N/A,,Clear,300,2013-01-05 18:53:00
12:53 PM,46.9,17.1,30,30.21,10.0,NE,11.5,-,N/A,,Clear,40,2013-01-05 19:53:00
1:53 PM,48.0,17.1,29,30.23,10.0,North,6.9,-,N/A,,Clear,360,2013-01-05 20:53:00
2:53 PM,46.9,18.0,32,30.25,10.0,NE,10.4,-,N/A,,Clear,50,2013-01-05 21:53:00
3:53 PM,46.9,19.9,34,30.28,10.0,NNE,9.2,-,N/A,,Clear,20,2013-01-05 22:53:00
4:53 PM,39.0,19.9,46,30.32,10.0,NNE,6.9,-,N/A,,Clear,30,2013-01-05 23:53:00
5:53 PM,33.1,19.9,59,30.36,10.0,NE,6.9,-,N/A,,Clear,40,2013-01-06 00:53:00
6:53 PM,30.9,19.9,64,30.40,10.0,ENE,5.8,-,N/A,,Clear,70,2013-01-06 01:53:00
7:53 PM,30.9,19.9,64,30.41,10.0,Calm,Calm,-,N/A,,Clear,0,2013-01-06 02:53:00
8:53 PM,28.9,19.0,67,30.41,10.0,Calm,Calm,-,N/A,,Clear,0,2013-01-06 03:53:00
9:53 PM,28.0,19.0,69,30.42,10.0,Calm,Calm,-,N/A,,Clear,0,2013-01-06 04:53:00
10:53 PM,26.1,18.0,71,30.41,10.0,Calm,Calm,-,N/A,,Clear,0,2013-01-06 05:53:00
11:53 PM,25.0,18.0,75,30.41,10.0,North,6.9,-,N/A,,Clear,350,2013-01-06 06:53:00